Simultaneous Nadir Overpasses (SNOs) Predictions

Prediction of SNOs between METOP-A and NOAA-19 Satellite Orbit:

Table of predicted SNOs for the next 14.0 days since TLE Epoch: 1/12/2018
Index Date (METOP-A) Time (METOP-A) Lat,Lon (METOP-A) SZA (METOP-A ) Date (NOAA-19) Time (NOAA-19) Lat,Lon (NOAA-19) SZA (NOAA-19 ) Distance(km) Time Diff (sec)
1 01/21/2018 06:07:44 -78.07, -84.86 82.07 01/21/2018 06:06:34 -78.07, -84.81 82.07 1.04 70
2 01/21/2018 06:58:24 78.07, 82.49 97.93 01/21/2018 06:57:30 78.06, 82.51 97.92 1.31 54
3 01/21/2018 07:49:06 -78.05,-110.30 82.11 01/21/2018 07:48:35 -78.06,-110.24 82.10 1.58 31
4 01/21/2018 08:39:46 78.05, 57.04 97.89 01/21/2018 08:39:31 78.05, 57.07 97.89 0.77 15
5 01/21/2018 09:30:28 -78.03,-135.75 82.15 01/21/2018 09:30:36 -78.05,-135.67 82.13 2.40 8
6 01/21/2018 10:21:08 78.03, 31.60 97.85 01/21/2018 10:21:32 78.04, 31.64 97.86 1.21 24
7 01/21/2018 11:11:50 -78.01,-161.19 82.18 01/21/2018 11:12:37 -78.03,-161.11 82.16 3.30 47
8 01/21/2018 12:02:30 78.01, 6.15 97.82 01/21/2018 12:03:33 78.03, 6.20 97.84 2.08 63




NCC Satellite Simultaneous Nadir Overpasses (SNOs) Prediction Service
